Skip Page Navigation
NASA JPL Caltech
NASA Logo - Jet Propulsion Laboratory + View the NASA Portal
+ Center for Near-Earth Object Studies
JPL Home Earth Solar System Stars & Galaxies Technology
JPL Solar System Dynamics
BODIES ORBITS EPHEMERIDES TOOLS PHYSICAL DATA DISCOVERY FAQ SITE MAP
JPL Small-Body Database Browser
Search: [ help ]  
31899 Adityamohan (2000 GG7)
Classification: Main-belt Asteroid          SPK-ID: 2031899
Ephemeris | Orbit Diagram | Orbital Elements | Mission Design | Physical Parameters | Discovery Circumstances ]

[ hide orbit diagram ]

For accurate long-term ephemerides, please instead use our Horizons system.This orbit viewer was implemented using two-body methods, and hence should not be used for determining accurate long-term trajectories (over several years or decades) or planetary encounter circumstances.


[ revert to old Java-based viewer ]

Orbital Elements at Epoch 2459000.5 (2020-May-31.0) TDB
Reference: JPL 24 (heliocentric ecliptic J2000)
 Element Value Uncertainty (1-sigma)   Units 
e .1679520953242124 3.403e-08  
a 2.281029037374556 8.4447e-09 au
q 1.897925431052128 7.7727e-08 au
i 3.4801486821254 4.5858e-06 deg
node 47.54586813646424 6.4512e-05 deg
peri 266.0337942059753 6.5949e-05 deg
M 203.4235155818322 1.4131e-05 deg
tp 2459547.791476611287
(2021-Nov-29.29147661)
5.0286e-05 TDB
period 1258.330280643358
3.45
6.9878e-06
1.913e-08
d
yr
n .2860934092883305 1.5887e-09 deg/d
Q 2.664132643696984 9.8631e-09 au
  Orbit Determination Parameters
   # obs. used (total)      849  
   data-arc span      13439 days (36.79 yr)  
   first obs. used      1983-05-12  
   last obs. used      2020-02-26  
   planetary ephem.      DE431  
   SB-pert. ephem.      SB431-N16  
   condition code      0  
   norm. resid. RMS      .56109  
   source      ORB  
   producer      Otto Matic  
   solution date      2020-Nov-13 00:58:30  

Additional Information
 Earth MOID = .887895 au 
 Jupiter MOID = 2.60606 au 
 T_jup = 3.584 
[ show covariance matrix ]

Ephemeris | Orbit Diagram | Orbital Elements | Mission Design | Physical Parameters | Discovery Circumstances ]

Physical Parameter Table
Parameter Symbol Value Units Sigma Reference Notes
absolute magnitude H 16.2   n/a MPO452619  

31899 Adityamohan           Discovered 2000 Apr. 4 by the Lincoln Laboratory Near-Earth Asteroid Research Team at Socorro.
Aditya Anand Mohan (b. 1997) was awarded first place in the 2015 Intel International Science and Engineering Fair for his biomedical and health sciences project. He attends the Colonel By Secondary School, Ottawa, Ontario, Canada.
NOTE: some special characters may not display properly (any characters within {} are an attempt to place the proper accent above a character)
Reference: MPC batch dated 2015-11-25Last Updated: 2015-11-30

Alternate Designations
 2000 GG7 = 1994 TS8 
Ephemeris | Orbit Diagram | Orbital Elements | Mission Design | Physical Parameters | Discovery Circumstances ]
ABOUT SSD CREDITS/AWARDS PRIVACY/COPYRIGHT GLOSSARY LINKS
FirstGov 2020-Dec-03 21:50 UT
(server date/time)  
NASA Home Page
Site Manager:   Ryan S. Park
Webmaster  Alan B. Chamberlin